Location: Newark
(13.6797°N, 8.5297°E)
Time: 08:03:28
(UTC+00:00)

Tiros 1 - Visible Passes

Search period start: 19 January 2020 00:00
Search period end: 29 January 2020 00:00
Orbit: 630 x 664 km, 48.4° (Epoch: 19 January)

Date Brightness Start Highest point End Pass type
(mag) Time Alt. Az. Time Alt. Az. Time Alt. Az.
26 Jan 8.8 18:20:45 10° N 18:23:17 16° NE 18:23:17 16° NE visible
27 Jan 7.4 18:45:24 10° NNW 18:49:49 46° NE 18:49:49 46° NE visible
28 Jan 7.7 19:11:18 10° NW 19:15:59 55° SW 19:16:51 48° SSW visible
